SCP
0 0 0 0 0 0 0 0 0 1 2 3 4 3 3 2 1 1 0 0 0 0 0 0 0 0 0 0 0 0 0 0 0 0 0 0 0 0 0 0 0 0 0
0 0 0 0 0 0 0 0 0 0 2 3 4 3 2 1 1 0 0 0 0 0 0 0 0 0 0 0 0 0 0 0 0 0 0 0 0 0 0 0 0 0 0
0 0 0 0 0 0 0 0 0 0 2 3 3 2 1 0 0 0 0 0 0 0 0 0 0 0 0 0 0 0 0 0 0 0 0 0 0 0 0 0 0 0 0
0 0 0 0 0 0 0 0 0 1 2 3 3 1 0 0 0 0 0 0 0 0 0 0 0 0 0 0 0 0 0 0 0 0 0 0 0 0 0 0 0 0 0
0 0 0 0 0 0 0 0 0 1 3 3 2 1 0 0 0 0 0 0 0 0 0 0 0 0 0 0 0 0 0 0 0 0 0 0 0 0 0 0 0 0 0
0 0 0 0 0 0 0 0 1 2 2 2 1 0 0 0 0 0 0 0 0 0 0 0 0 0 0 0 0 0 0 0 0 0 0 0 0 0 0 0 0 0 0
0 0 0 0 0 0 0 0 1 2 2 1 1 0 0 0 0 0 0 0 0 0 0 0 0 0 0 0 0 0 0 0 0 0 0 0 0 0 0 0 0 0 0
0 0 0 0 0 0 0 0 1 1 1 1 0 0 0 0 0 0 0 0 0 0 0 0 0 0 0 0 0 0 0 0 0 0 0 0 0 0 0 0 0 0 0
0 0 0 0 0 0 0 0 1 1 1 0 0 0 0 0 0 0 0 0 0 0 0 0 0 0 0 0 0 0 0 0 0 0 0 0 0 0 0 0 0 0 0
0 0 0 0 0 0 0 0 1 1 0 0 0 0 0 0 0 0 0 0 0 0 0 0 0 0 0 0 0 0 0 0 0 0 0 0 0 0 0 0 0 0 0
0 0 0 0 0 0 0 0 0 0 0 0 0 0 0 0 0 0 0 0 0 0 0 0 0 0 0 0 0 0 0 0 0 0 0 0 0 0 0 0 0 0 0
0 0 0 0 0 0 0 0 0 0 0 0 0 0 0 0 0 0 0 0 0 0 0 0 0 0 0 0 0 0 0 0 0 0 0 0 0 0 0 0 0 0 0
0 0 0 0 0 0 0 0 0 0 0 0 0 0 0 0 0 0 0 0 0 0 0 0 0 0 0 0 0 0 0 0 0 0 0 0 0 0 0 0 0 0 0
0 0 0 0 0 0 0 0 0 0 0 0 0 0 0 0 0 0 0 0 0 0 0 0 0 0 0 0 0 0 0 0 0 0 0 0 0 0 0 0 0 0 0
0 0 0 0 0 0 0 0 0 0 0 0 0 0 0 0 0 0 0 0 0 0 0 0 0 0 0 0 0 0 0 0 0 0 0 0 0 0 0 0 0 0 0
0 0 0 0 0 0 0 0 0 0 0 0 0 0 0 0 0 0 0 0 0 0 0 0 0 0 0 0 0 0 0 0 0 0 0 0 0 0 0 0 0 0 0
0 0 0 0 0 0 0 0 0 0 0 0 0 0 0 0 0 0 0 0 0 0 0 0 0 0 0 0 0 0 0 0 0 0 0 0 0 0 0 0 0 0 0
0 0 0 0 0 0 0 0 0 0 0 0 0 0 0 0 0 0 0 0 0 0 0 0 0 0 0 0 0 0 0 0 0 0 0 0 0 0 0 0 0 0 0
0 0 0 -0 0 0 0 0 0 0 0 0 0 0 0 0 0 0 0 0 0 0 0 0 0 0 0 0 0 0 0 0 0 0 0 0 0 0 0 0 0 0 0
0 0 0 0 0 0 0 0 0 0 0 0 0 0 0 0 0 0 0 0 0 0 0 0 0 0 0 0 0 0 0 0 0 0 0 0 0 0 0 0 0 0 0
0 0 0 0 0 0 0 0 0 0 0 0 0 0 0 0 0 0 0 0 0 0 0 0 0 0 0 0 0 0 0 0 0 0 0 0 0 0 0 0 0 0 0
0 0 0 0 0 0 0 0 0 0 0 0 0 0 0 0 0 0 0 0 0 0 0 0 0 0 0 0 0 0 0 0 0 0 0 0 0 0 0 0 0 0 0
0 0 -0 0 0 0 0 0 0 0 0 0 0 0 0 0 0 0 0 0 0 0 0 0 0 0 0 0 0 0 0 0 0 0 0 0 0 0 0 0 0 0 0
0 0 0 0 0 -0 0 0 0 0 0 0 0 0 0 0 0 0 0 0 0 0 0 0 0 0 0 0 0 0 0 0 0 0 0 0 0 0 0 0 0 0 0
0 0 0 0 0 0 0 0 0 0 0 0 0 0 0 0 0 0 0 0 0 0 0 0 0 0 0 0 0 0 0 0 0 0 0 0 0 0 0 0 0 0 0
0 0 0 0 0 0 0 0 0 0 0 0 0 0 0 0 0 0 0 0 0 0 0 0 0 0 0 0 0 0 0 0 0 0 0 0 0 0 0 0 0 0 0
Wind_Speed
10 8 8 8 8 8 8 8 10 11 9 9 10 9 7 6 6 6 10 11 10 10 9 7 7 6 5 4 5 3 4 3 3 2 2 1 1 2 2 2 1 1 3
11 11 10 10 10 10 9 8 8 11 11 10 9 6 5 5 5 6 8 9 10 10 9 9 7 6 5 6 5 3 3 2 3 2 2 3 2 2 2 2 2 2 0
12 11 11 11 10 12 11 8 8 9 12 12 9 7 6 5 4 6 6 7 9 9 9 9 8 7 6 5 5 3 3 2 2 3 3 2 2 4 3 2 1 0 0
10 10 10 11 10 11 11 11 9 9 12 14 14 15 11 8 7 6 6 8 8 9 10 10 9 8 6 6 5 4 3 3 2 1 2 2 2 1 4 4 3 3 2
9 8 8 8 8 8 8 10 10 9 11 13 14 14 10 7 9 9 10 8 7 8 10 10 9 8 6 7 6 5 3 2 2 2 1 1 0 2 2 4 4 4 3
4 3 3 4 5 6 5 8 10 10 12 13 13 13 14 14 16 15 13 10 7 7 9 10 8 8 7 7 6 5 4 3 3 2 1 1 0 1 1 3 4 5 4
2 2 3 5 6 6 6 7 10 11 13 13 13 13 14 16 18 17 15 13 10 9 9 10 8 7 7 7 6 5 4 3 2 1 1 1 1 1 1 3 4 5 4
3 2 3 4 6 7 6 7 9 10 12 13 12 11 13 13 11 13 13 12 9 8 9 10 9 8 8 7 5 4 3 3 2 0 1 0 1 1 1 2 3 5 4
4 2 3 4 7 7 7 8 10 10 12 12 11 11 14 14 13 12 11 9 10 11 11 11 9 8 7 7 5 3 4 3 1 1 1 1 1 1 1 1 2 3 5
3 1 1 4 6 7 6 7 10 11 12 13 11 10 13 14 14 14 13 13 13 13 13 11 9 8 7 6 5 4 4 2 0 1 1 1 1 1 2 2 3 3 5
1 0 1 4 7 7 4 6 9 10 12 13 12 13 12 14 14 12 13 14 13 14 12 11 9 8 7 6 5 3 4 1 1 1 1 2 1 1 2 2 3 4 5
2 1 2 3 6 6 4 5 8 11 13 14 13 12 12 13 13 13 13 14 14 12 11 10 8 8 7 5 4 3 2 1 1 2 2 3 2 2 3 3 4 4 5
6 3 2 2 4 4 3 3 9 13 14 14 14 13 13 13 14 14 14 14 13 12 10 9 8 7 6 5 4 2 2 2 2 2 3 3 2 3 3 4 4 4 7
7 4 2 1 2 2 2 7 11 13 14 13 13 13 13 13 13 13 13 13 13 12 10 9 9 7 6 4 3 2 2 3 3 3 3 3 3 4 4 4 5 6 6
7 4 2 2 2 4 8 10 12 12 12 12 12 13 13 13 13 13 13 13 12 12 11 10 8 6 5 4 5 4 4 4 5 4 4 3 6 9 8 7 5 5 5
5 3 3 5 6 9 10 10 11 11 11 12 13 14 15 14 13 12 12 13 12 11 10 9 7 5 5 6 4 3 3 4 5 5 4 4 6 10 13 15 15 14 10
2 2 6 7 8 9 10 10 10 11 12 12 14 15 15 15 13 13 12 12 11 10 9 7 6 5 6 5 3 5 3 4 5 5 4 5 6 10 4 10 14 13 19
2 6 8 10 10 10 10 11 12 12 13 13 14 15 14 14 13 12 12 11 9 8 7 6 5 4 5 5 2 6 5 5 6 5 5 4 5 6 9 6 5 7 10
8 9 10 11 11 11 12 14 14 13 14 14 14 13 13 13 12 11 10 8 7 6 6 5 4 2 3 4 3 6 3 4 6 5 5 7 6 13 17 9 8 10 9
10 10 11 12 12 12 13 15 14 14 14 13 13 12 11 12 11 10 9 7 6 6 5 4 2 2 1 1 3 6 2 4 4 4 6 11 13 16 18 10 9 11 10
11 11 12 11 11 12 13 15 14 13 13 13 13 11 10 10 10 9 7 6 5 4 3 2 1 1 2 0 4 6 2 3 4 4 4 6 17 19 21 19 9 13 15
11 10 11 11 11 12 13 15 14 12 12 12 12 11 10 9 8 8 6 5 4 3 2 1 1 1 1 1 4 8 9 9 4 5 4 7 19 21 22 15 15 20 17
9 9 11 13 11 10 11 16 13 12 13 13 12 11 10 8 7 6 5 4 3 2 2 2 1 2 2 4 8 9 13 15 7 6 14 18 21 20 12 14 18 15 6
9 10 12 13 12 10 9 12 12 11 13 13 10 8 8 7 6 5 4 3 3 3 3 3 3 3 3 3 2 3 5 9 8 7 11 18 18 14 12 12 9 6 6
9 9 11 13 13 11 11 10 10 11 12 11 8 7 6 6 5 4 3 3 3 3 2 2 2 3 3 6 12 9 5 5 7 9 5 4 5 4 5 5 5 6 7
10 11 12 13 12 11 11 9 8 9 11 9 6 5 4 4 3 3 1 1 1 1 2 3 3 4 7 12 14 16 16 17 17 11 4 5 4 5 7 8 9 8 8
Wind_Direction
251 243 235 241 249 246 236 207 182 176 170 166 174 185 186 163 144 138 138 137 138 137 139 135 127 124 124 128 126 118 90 35 352 3 342 281 201 183 203 188 167 210 203
246 245 237 225 227 238 239 222 196 180 175 172 174 172 143 118 107 117 125 133 139 143 142 136 132 124 116 103 96 96 109 62 30 42 16 1 341 303 247 180 187 226 177
246 248 245 237 224 223 228 227 210 186 172 160 150 127 103 89 94 116 127 136 142 142 138 132 128 125 120 119 113 103 104 130 68 60 77 74 330 321 320 274 203 177 309
242 241 241 243 236 225 216 217 212 186 166 158 160 163 163 157 161 146 137 137 141 140 134 130 129 123 119 121 117 103 90 95 111 85 69 108 116 30 320 321 336 352 339
238 242 241 238 240 235 220 205 194 173 159 161 165 169 162 136 133 133 141 142 142 137 132 130 128 125 123 120 114 108 88 73 86 83 52 22 55 199 220 283 304 324 322
250 273 291 289 270 256 241 209 181 166 160 164 166 168 161 149 148 151 154 150 144 135 131 130 126 122 120 119 119 113 100 83 74 58 51 65 26 347 303 286 302 297 291
287 307 337 324 296 268 242 210 179 164 163 169 171 172 164 156 158 157 157 154 151 147 141 135 128 123 122 121 122 120 120 108 94 68 37 32 2 325 294 285 292 296 298
282 309 323 308 290 268 238 200 177 164 167 172 171 172 156 153 157 159 156 155 151 144 138 132 127 126 125 126 125 123 129 118 126 142 91 358 298 306 297 286 306 306 291
232 255 305 307 296 271 236 194 175 167 169 168 166 164 152 152 155 153 147 145 142 140 136 129 129 129 127 130 135 135 137 133 161 148 61 345 304 329 320 311 289 277 291
207 214 318 315 308 286 242 192 174 171 166 162 159 152 149 149 150 150 152 146 143 140 134 129 128 125 123 123 121 116 110 100 62 138 142 284 298 323 320 302 288 273 278
239 164 350 324 314 298 244 185 172 165 157 148 139 142 144 146 147 147 144 140 138 136 132 131 128 126 127 127 126 130 128 141 288 296 254 268 283 290 291 292 284 275 273
302 336 3 338 320 305 264 184 167 153 141 133 134 137 139 140 139 136 134 133 132 128 127 127 123 122 119 117 119 122 127 205 266 285 288 283 289 292 286 278 274 278 278
305 316 336 333 313 308 300 145 133 128 124 127 132 134 135 133 131 131 130 129 126 123 119 115 112 108 104 98 85 69 28 337 301 282 270 270 280 283 280 284 285 284 289
296 298 295 287 309 353 69 106 112 115 119 125 132 134 131 127 127 127 126 124 121 117 110 104 102 102 101 95 71 34 356 329 315 306 288 271 263 263 267 278 271 276 282
279 274 243 176 132 97 93 99 106 111 118 126 130 127 121 119 119 120 120 118 113 109 105 104 101 102 110 87 57 21 354 341 325 311 297 287 290 290 289 286 276 285 285
282 264 179 148 127 111 106 104 106 113 121 127 125 120 118 116 115 117 117 111 108 106 106 108 111 113 105 89 49 359 339 328 316 306 300 299 296 296 305 311 309 306 306
292 172 133 121 112 111 112 111 111 113 117 120 119 117 118 118 117 118 114 110 109 108 109 114 124 123 120 106 35 343 337 311 295 289 287 293 297 309 301 297 302 304 303
61 107 108 105 102 103 104 103 105 109 113 114 114 115 118 119 117 116 111 110 112 115 116 116 109 109 139 126 38 346 347 311 295 290 290 293 294 297 301 290 298 286 291
80 91 98 103 104 105 107 107 106 108 110 111 113 116 120 119 117 114 112 112 112 109 110 112 111 104 130 131 28 357 332 305 307 318 327 321 302 304 312 315 299 293 289
76 87 93 99 102 105 109 111 112 113 114 116 116 117 117 117 115 112 109 105 104 106 107 108 112 109 116 103 358 345 323 314 316 314 310 313 311 312 316 311 299 300 297
85 91 97 102 107 112 113 113 113 115 118 119 116 113 110 109 107 102 98 98 101 107 112 129 183 198 177 338 322 328 322 289 293 295 295 297 312 313 312 311 301 297 304
98 102 106 110 116 120 120 114 112 115 114 111 107 104 100 100 98 96 92 91 94 98 103 79 1 17 58 348 315 322 325 324 312 303 293 297 312 313 313 313 307 310 316
94 97 100 99 98 102 113 113 112 113 111 106 102 99 93 90 91 94 95 91 79 69 52 33 18 1 12 342 339 338 332 326 321 307 313 315 315 315 312 311 316 322 316
95 97 99 98 94 92 97 106 112 112 108 103 99 95 93 88 81 79 75 73 69 55 39 26 15 1 351 343 349 325 312 314 313 304 306 314 313 314 320 321 319 311 300
97 100 105 104 103 102 100 100 104 106 101 97 94 90 89 92 85 78 73 67 78 91 64 24 8 349 324 314 321 323 311 306 301 310 302 300 305 315 316 308 304 306 310
102 103 103 104 103 101 96 91 91 99 103 99 91 87 87 85 88 87 76 134 140 63 337 306 308 307 310 318 324 323 319 319 318 320 308 306 311 312 315 316 314 311 307